(256093) = 2006 UJ221

Discovered at Catalina on 2006-10-17 by CSS.

Orbit

Orbit type: Main Belt

Note: WebGL enabled browser required.

epoch2023-02-25.0
epoch JD2460000.5
perihelion date2022-04-27.13400
perihelion JD2459696.63400
argument of perihelion (°)215.83699
ascending node (°)220.41255
inclination (°)6.84107
eccentricity0.0647159
perihelion distance (AU)2.2587678
Tisserand w.r.t. Jupiter3.5
ΔV w.r.t. Earth (km/sec)9.6
semimajor axis (AU)2.4150606
mean anomaly (°)79.79835
mean daily motion (°/day)0.26261030
aphelion distance (AU)2.571
period (years)3.75
P-vector [x]0.24039597
P-vector [y]0.91601626
P-vector [z]0.32112925
Q-vector [x]-0.96759841
Q-vector [y]0.25245921
Q-vector [z]0.00420396
absolute magnitude17.13
phase slope0.15
uncertainty0
referenceMPO 745323
observations used309
oppositions15
arc length (days)8022
first opposition used2001
last opposition used2023
residual rms (arc-secs)0.79
perturbers coarse indicatorM-v
perturbers precise indicator003Ek
first observation date used2001-04-26.0
last observation date used2023-04-13.0
computer nameMPCLINUX
JD of orbit computation2456552.198974
perihelion JD uncertainty (days)1.2677E-04
argument of perihelion uncertainty (°)4.4622E-05
ascending node uncertainty (°)2.9402E-05
inclination uncertainty (°)4.8725E-06
eccentricity uncertainty 3.6678E-08
perihelion distance uncertainty (AU)8.7280E-08
Minimum Orbit Intersection Distances (in AU)
for orbit epoch: 2460000.5, reference: E2023-G86
Mercury1.95334
Venus1.53999
Earth1.27576
Mars0.71806
Jupiter2.60189
Saturn6.80677
Uranus16.0279
Neptune27.5294

Observations

318 total observations over interval: 2001 04 26.45392 – 2023 04 13.373034
These data are available for download (format description).

Date (UT) J2000 RA J2000 Dec Magn Location Ref
2001 04 26.45392 15 17 36.16 -17 15 29.3 22.0 V 691 – Steward Observatory, Kitt Peak-Spacewatch MPS 196406
2001 04 26.46602 15 17 35.54 -17 15 24.2 21.7 V 691 – Steward Observatory, Kitt Peak-Spacewatch MPS 196406
2001 04 26.47790 15 17 34.91 -17 15 19.4 21.3 V 691 – Steward Observatory, Kitt Peak-Spacewatch MPS 196406
2001 05 26.28231 14 51 02.72 -14 03 13.4 21.4 V 691 – Steward Observatory, Kitt Peak-Spacewatch MPS 196406
2001 05 26.30390 14 51 01.69 -14 03 05.8 21.5 V 691 – Steward Observatory, Kitt Peak-Spacewatch MPS 196406
2001 05 26.32497 14 51 00.69 -14 02 58.5 21.3 V 691 – Steward Observatory, Kitt Peak-Spacewatch MPS 196406
2002 10 05.249760 22 33 43.262 -00 13 24.70 20.65 V 645 – Apache Point-Sloan Digital Sky Survey MPS 196406
2002 10 05.253232 22 33 43.167 -00 13 26.25 21.63   645 – Apache Point-Sloan Digital Sky Survey MPS 196406
2004 02 14.25609 08 42 49.92 +06 10 40.5 19.7 R 699 – Lowell Observatory-LONEOS MPS 196406
2004 02 14.26735 08 42 49.25 +06 10 42.4   699 – Lowell Observatory-LONEOS MPS 196406
2004 02 14.27851 08 42 48.62 +06 10 46.1   699 – Lowell Observatory-LONEOS MPS 196406
2004 02 14.28973 08 42 48.04 +06 10 51.1   699 – Lowell Observatory-LONEOS MPS 196406
2006 09 18.23522 01 26 09.02 +14 45 48.2 20.2 V 703 – Catalina Sky Survey MPS 196406
2006 09 18.24280 01 26 08.80 +14 45 44.1 20.5 V 703 – Catalina Sky Survey MPS 196406
2006 09 18.25041 01 26 08.34 +14 45 43.1 20.9 V 703 – Catalina Sky Survey MPS 196406
2006 09 18.25802 01 26 08.19 +14 45 39.6 20.1 V 703 – Catalina Sky Survey MPS 196406
2006 10 01.31356 01 17 18.23 +13 25 34.0   691 – Steward Observatory, Kitt Peak-Spacewatch MPS 196406
2006 10 01.33087 01 17 17.38 +13 25 26.1   691 – Steward Observatory, Kitt Peak-Spacewatch MPS 196406
2006 10 01.34819 01 17 16.52 +13 25 18.7   691 – Steward Observatory, Kitt Peak-Spacewatch MPS 196406
2006 10 17.22216 01 03 51.66 +11 12 09.2 19.9 V 703 – Catalina Sky Survey MPS 185775
2006 10 17.22996 01 03 51.08 +11 12 05.6 20.4 V 703 – Catalina Sky Survey MPS 185775
2006 10 17.23776 01 03 50.86 +11 12 00.0 20.7 V 703 – Catalina Sky Survey MPS 185775
2006 10 17.24553 01 03 50.29 +11 11 55.8 19.9 V 703 – Catalina Sky Survey MPS 185775
2006 10 21.27918 01 00 29.04 +10 35 28.1 19.5 R 644 – Palomar Mountain/NEAT MPS 185775
2006 10 21.29945 01 00 27.96 +10 35 17.0 20.4 R 644 – Palomar Mountain/NEAT MPS 185775
2006 10 21.32092 01 00 26.90 +10 35 05.5 20.6 R 644 – Palomar Mountain/NEAT MPS 185775
2006 11 15.21104 00 46 20.64 +07 20 14.4 20.1 V G96 – Mt. Lemmon Survey MPS 196406
2006 11 15.21552 00 46 20.56 +07 20 13.1 20.4 V G96 – Mt. Lemmon Survey MPS 196406
2006 11 15.21995 00 46 20.49 +07 20 11.1 20.5 V G96 – Mt. Lemmon Survey MPS 196406
2006 11 15.22444 00 46 20.42 +07 20 09.7 20.3 V G96 – Mt. Lemmon Survey MPS 196406
2006 11 27.12784 00 45 26.56 +06 25 42.8 20.3 V G96 – Mt. Lemmon Survey MPS 196406
2006 11 27.13442 00 45 26.56 +06 25 41.3 20.8 V G96 – Mt. Lemmon Survey MPS 196406
2006 11 27.14111 00 45 26.64 +06 25 40.1 20.5 V G96 – Mt. Lemmon Survey MPS 196406
2006 11 27.14770 00 45 26.64 +06 25 38.7 20.7 V G96 – Mt. Lemmon Survey MPS 196406
2008 03 09.34445 11 02 05.69 -03 45 57.1 19.8   704 – Lincoln Laboratory ETS, New Mexico MPS 243576
2008 03 09.35561 11 02 05.07 -03 45 50.3 20.9   704 – Lincoln Laboratory ETS, New Mexico MPS 243576
2008 03 09.36668 11 02 04.49 -03 45 46.6 20.4   704 – Lincoln Laboratory ETS, New Mexico MPS 243576
2008 03 09.37791 11 02 03.70 -03 45 39.0 20.7   704 – Lincoln Laboratory ETS, New Mexico MPS 243576
2008 03 11.32177 11 00 21.88 -03 30 22.7 20.1 V G96 – Mt. Lemmon Survey MPS 242187
2008 03 11.33120 11 00 21.38 -03 30 18.2 20.1 V G96 – Mt. Lemmon Survey MPS 242187
2008 03 11.34063 11 00 20.84 -03 30 13.8 20.1 V G96 – Mt. Lemmon Survey MPS 242187
2008 03 11.35007 11 00 20.34 -03 30 09.1 19.8 V G96 – Mt. Lemmon Survey MPS 242187
2010 10 10.427851 04 08 31.770 +20 06 32.48 20.94 w F51 – Pan-STARRS 1, Haleakala MPS 366878
2010 10 10.442570 04 08 31.680 +20 06 27.90 20.88 w F51 – Pan-STARRS 1, Haleakala MPS 366878
2010 10 10.457618 04 08 31.578 +20 06 25.13 20.90 w F51 – Pan-STARRS 1, Haleakala MPS 366878
2010 11 01.19974 03 59 08.05 +18 14 39.7   691 – Steward Observatory, Kitt Peak-Spacewatch MPS 353830
2010 11 01.21743 03 59 07.24 +18 14 33.3   691 – Steward Observatory, Kitt Peak-Spacewatch MPS 353830
2010 11 01.23510 03 59 06.39 +18 14 26.8   691 – Steward Observatory, Kitt Peak-Spacewatch MPS 353830
2010 11 04.05307 03 56 53.92 +17 56 18.9 19.4 V J75 – OAM Observatory, La Sagra MPS 353830
2010 11 04.06600 03 56 53.31 +17 56 14.0 19.6 V J75 – OAM Observatory, La Sagra MPS 353830
2010 11 04.07894 03 56 52.64 +17 56 08.7 19.3 V J75 – OAM Observatory, La Sagra MPS 353830
2010 11 05.28844 03 55 52.77 +17 48 12.0 20.1   704 – Lincoln Laboratory ETS, New Mexico MPS 355429
2010 11 05.31357 03 55 51.46 +17 48 01.5 20.2   704 – Lincoln Laboratory ETS, New Mexico MPS 355429
2010 11 05.32638 03 55 50.76 +17 47 55.8 20.5   704 – Lincoln Laboratory ETS, New Mexico MPS 355429
2010 11 09.527178 03 52 09.454 +17 19 33.15 20.32 w F51 – Pan-STARRS 1, Haleakala MPS 366878
2010 11 09.545327 03 52 08.417 +17 19 25.58 20.29 w F51 – Pan-STARRS 1, Haleakala MPS 366878
2010 11 09.563609 03 52 07.374 +17 19 17.94 20.20 w F51 – Pan-STARRS 1, Haleakala MPS 366878
2010 11 09.581748 03 52 06.344 +17 19 10.31 20.18 w F51 – Pan-STARRS 1, Haleakala MPS 366878
2010 11 12.38094 03 49 30.39 +16 59 46.5 19.5 V G96 – Mt. Lemmon Survey MPS 355429
2010 11 12.38836 03 49 29.92 +16 59 43.1 19.4 V G96 – Mt. Lemmon Survey MPS 355429
2010 11 12.39582 03 49 29.49 +16 59 40.0 19.5 V G96 – Mt. Lemmon Survey MPS 355429
2010 11 12.40336 03 49 29.06 +16 59 37.0 19.7 V G96 – Mt. Lemmon Survey MPS 355429
2010 11 26.22821 03 36 05.65 +15 24 02.1 19.6 V G96 – Mt. Lemmon Survey MPS 357465
2010 11 26.23519 03 36 05.25 +15 23 59.6 19.5 V G96 – Mt. Lemmon Survey MPS 357465
2010 11 26.24211 03 36 04.86 +15 23 56.8 19.5 V G96 – Mt. Lemmon Survey MPS 357465
2010 11 26.24896 03 36 04.42 +15 23 54.0 19.4 V G96 – Mt. Lemmon Survey MPS 357465
2010 12 10.18944 03 24 25.66 +14 02 00.6 19.5 V G96 – Mt. Lemmon Survey MPS 362665
2010 12 10.19703 03 24 25.30 +14 01 58.6 19.6 V G96 – Mt. Lemmon Survey MPS 362665
2010 12 10.20458 03 24 24.98 +14 01 56.3 19.5 V G96 – Mt. Lemmon Survey MPS 362665
2010 12 10.21212 03 24 24.66 +14 01 54.2 19.4 V G96 – Mt. Lemmon Survey MPS 362665
2012 03 15.55896 13 21 52.052 -14 04 28.13 20.5 i F51 – Pan-STARRS 1, Haleakala MPS 417092
2012 03 15.57060 13 21 51.598 -14 04 24.80 20.4 i F51 – Pan-STARRS 1, Haleakala MPS 417092
2012 04 16.39166 12 56 05.757 -10 12 02.78 20.3 w F51 – Pan-STARRS 1, Haleakala MPS 421731
2012 04 16.39232 12 56 05.727 -10 12 02.38 20.3 w F51 – Pan-STARRS 1, Haleakala MPS 421731
2012 04 16.40484 12 56 05.078 -10 11 56.15 20.3 w F51 – Pan-STARRS 1, Haleakala MPS 421731
2012 04 16.40550 12 56 05.044 -10 11 55.78 20.3 w F51 – Pan-STARRS 1, Haleakala MPS 421731
2012 04 16.41808 12 56 04.398 -10 11 49.37 20.3 w F51 – Pan-STARRS 1, Haleakala MPS 421731
2012 04 16.41873 12 56 04.366 -10 11 49.14 20.3 w F51 – Pan-STARRS 1, Haleakala MPS 421731
2012 04 16.43132 12 56 03.704 -10 11 42.95 20.4 w F51 – Pan-STARRS 1, Haleakala MPS 421731
2012 04 16.43198 12 56 03.681 -10 11 42.44 20.3 w F51 – Pan-STARRS 1, Haleakala MPS 421731
2013 07 16.51913 21 05 37.931 -05 03 55.84 20.4 w F51 – Pan-STARRS 1, Haleakala MPS 472536
2013 07 16.53328 21 05 37.268 -05 03 56.73 20.6 w F51 – Pan-STARRS 1, Haleakala MPS 472536
2013 07 16.55028 21 05 36.466 -05 03 57.81 20.5 w F51 – Pan-STARRS 1, Haleakala MPS 472536
2013 07 16.56647 21 05 35.704 -05 03 58.68 20.5 w F51 – Pan-STARRS 1, Haleakala MPS 472536
2013 08 09.41461 20 44 35.556 -06 12 29.93 21.0 g F51 – Pan-STARRS 1, Haleakala MPS 473582
2013 08 09.42512 20 44 34.959 -06 12 32.50 21.0 g F51 – Pan-STARRS 1, Haleakala MPS 473582
2013 08 16.40990 20 38 24.677 -06 45 25.14 20.1 i F51 – Pan-STARRS 1, Haleakala MPS 474252
2013 08 16.42124 20 38 24.069 -06 45 28.66 20.1 r F51 – Pan-STARRS 1, Haleakala MPS 474252
2013 08 16.43129 20 38 23.537 -06 45 31.71 20.4 r F51 – Pan-STARRS 1, Haleakala MPS 474252
2013 09 01.18711 20 27 22.61 -08 06 48.2 20.5 V G96 – Mt. Lemmon Survey MPS 475959
